Location: McFarlands Corners
(41.4117°N, 81.3382°W)
Time: 02:30:49
(UTC+00:00)

Transit 2A - All Passes

Search period start: 07 February 2026 00:00
Search period end: 17 February 2026 00:00
Orbit: 589 x 955 km, 66.7° (Epoch: 6 February)

Date Brightness Start Highest point End Pass type
(mag) Time Alt. Az. Time Alt. Az. Time Alt. Az.
7 Feb - 03:23:45 10° N 03:26:38 13° NNE 03:29:27 10° ENE visible
7 Feb - 05:05:16 10° NNW 05:11:15 54° NE 05:16:43 10° SE night (unlit)
7 Feb - 06:49:12 10° NW 06:53:53 24° WSW 06:58:14 10° SSW night (unlit)
7 Feb - 19:42:39 10° S 19:48:16 44° ESE 19:54:10 10° NE daylight
7 Feb - 21:25:53 10° WSW 21:31:28 36° NW 21:37:18 10° NNE daylight
7 Feb - 23:15:44 10° NW 23:16:33 10° NNW 23:17:22 10° NNW visible
8 Feb - 02:48:50 10° NNE 02:49:43 10° NNE 02:50:35 10° NE visible
8 Feb - 04:29:04 10° NNW 04:34:44 38° NE 04:39:58 10° ESE night (unlit)
8 Feb - 06:12:22 10° NW 06:17:47 37° WSW 06:22:45 10° S night (unlit)
8 Feb - 19:07:02 10° SSE 19:12:07 30° ESE 19:17:26 10° NE daylight
8 Feb - 20:49:03 10° SW 20:54:56 50° NW 21:01:06 10° NNE daylight
8 Feb - 22:36:44 10° WNW 22:39:38 13° NNW 22:42:32 10° N daylight
9 Feb - 03:52:55 10° NNW 03:58:07 28° NE 04:02:57 10° ESE visible
9 Feb - 05:35:45 10° NW 05:41:37 55° WSW 05:46:55 10° S night (unlit)
9 Feb - 18:31:50 10° SSE 18:36:03 20° ESE 18:40:24 10° ENE daylight
9 Feb - 20:12:26 10° SW 20:18:29 71° WNW 20:24:49 10° NNE daylight
9 Feb - 21:58:47 10° WNW 22:02:46 17° NW 22:06:48 10° N daylight
10 Feb - 03:16:53 10° N 03:21:25 21° NE 03:25:42 10° E visible
10 Feb - 04:59:16 10° NNW 05:05:20 82° WSW 05:10:49 10° SSE night (unlit)
10 Feb - 06:45:41 10° W 06:47:16 11° W 06:48:48 10° WSW night (unlit)
10 Feb - 17:57:30 10° SE 18:00:03 13° E 18:02:38 10° ENE daylight
10 Feb - 19:36:04 10° SSW 19:42:06 82° ESE 19:48:28 10° NNE daylight
10 Feb - 21:21:14 10° W 21:26:00 22° NW 21:30:52 10° N daylight
11 Feb - 02:40:59 10° N 02:44:37 16° NE 02:48:06 10° ENE visible
11 Feb - 04:22:55 10° NNW 04:28:57 69° ENE 04:34:27 10° SE visible
11 Feb - 06:07:29 10° WNW 06:11:17 18° WSW 06:14:53 10° SW night (unlit)
11 Feb - 18:59:57 10° S 19:05:49 57° ESE 19:12:00 10° NE daylight
11 Feb - 20:43:58 10° WSW 20:49:19 30° NW 20:54:49 10° NNE daylight
12 Feb - 02:05:24 10° N 02:07:46 12° NNE 02:10:03 10° NE visible
12 Feb - 03:46:38 10° NNW 03:52:30 48° NE 03:57:51 10° SE visible
12 Feb - 05:30:22 10° NW 05:35:14 27° WSW 05:39:46 10° SSW night (unlit)
12 Feb - 18:24:05 10° S 18:29:37 39° ESE 18:35:24 10° NE daylight
12 Feb - 20:06:59 10° WSW 20:12:43 40° NW 20:18:40 10° NNE daylight
12 Feb - 21:55:54 10° NW 21:57:39 11° NNW 21:59:25 10° NNW daylight
13 Feb - 03:10:26 10° NNW 03:15:56 34° NE 03:21:01 10° ESE visible
13 Feb - 04:53:35 10° NW 04:59:08 41° WSW 05:04:10 10° S night (unlit)
13 Feb - 17:48:35 10° SSE 17:53:29 26° ESE 17:58:35 10° NE daylight
13 Feb - 19:30:12 10° SW 19:36:12 56° NW 19:42:26 10° NNE daylight
13 Feb - 21:17:27 10° WNW 21:20:45 14° NW 21:24:03 10° N daylight
14 Feb - 02:34:20 10° N 02:39:18 25° NE 02:43:55 10° E visible
14 Feb - 04:17:00 10° NW 04:22:54 63° WSW 04:28:14 10° SSE visible
14 Feb - 17:13:34 10° SE 17:17:26 18° ESE 17:21:23 10° ENE daylight
14 Feb - 18:53:40 10° SSW 18:59:45 79° WNW 19:06:08 10° NNE daylight
14 Feb - 20:39:38 10° W 20:43:55 19° NW 20:48:15 10° N daylight
15 Feb - 01:58:20 10° N 02:02:33 19° NE 02:06:34 10° E visible
15 Feb - 03:40:34 10° NNW 03:46:36 88° ENE 03:52:02 10° SSE visible
15 Feb - 05:26:12 10° WNW 05:28:38 13° W 05:31:00 10° SW night (unlit)
15 Feb - 16:39:51 10° ESE 16:41:26 11° E 16:43:03 10° E daylight
15 Feb - 18:17:22 10° SSW 18:23:24 74° ESE 18:29:45 10° NNE daylight
15 Feb - 20:02:11 10° W 20:07:10 25° NW 20:12:15 10° N daylight
16 Feb - 01:22:31 10° N 01:25:44 14° NE 01:28:51 10° ENE visible
16 Feb - 03:04:14 10° NNW 03:10:12 61° ENE 03:15:36 10° SE visible
16 Feb - 04:48:31 10° WNW 04:52:39 20° WSW 04:56:31 10° SSW night (unlit)
16 Feb - 17:41:19 10° S 17:47:08 51° ESE 17:53:14 10° NE daylight
16 Feb - 19:25:00 10° WSW 19:30:30 33° NW 19:36:10 10° NNE daylight
